Location: *
(42.3442°N, 9.2072°E)
Time: 10:50:28
(UTC+00:00)

Meteor 2-10 Rocket - Pass Details

Date: 09 August 2020
Orbit: 734 x 884 km, 81.2° (Epoch: 22 September)

Event Time Altitude Azimuth Distance (km) Brightness Sun altitude
Rises 03:16:15 0° 141° (SE) 3,191 6.8 -11.9°
Reaches altitude 10° 03:19:26 10° 120° (ESE) 2,295 6.3 -11.4°
Maximum altitude 03:22:27 16° 84° (E) 1,947 6.6 -10.9°
Drops below altitude 10° 03:25:32 10° 48° (NE) 2,358 7.6 -10.5°
Sets 03:28:51 0° 28° (NNE) 3,326 7.9 -9.9°
